Location: Gniazdowice
(50.2124°N, 20.2673°E)
Time: 23:30:44
(UTC+00:00)

Okean 1 Rocket - Pass Details

Date: 23 May 2024
Orbit: 602 x 631 km, 82.5° (Epoch: 22 June)

Event Time Altitude Azimuth Distance (km) Brightness Sun altitude
Rises 01:35:59 0° 352° (N) 2,879 7.1 -8.7°
Reaches altitude 10° 01:38:15 10° 356° (N) 1,967 6.3 -8.5°
Maximum altitude 01:42:33 62° 77° (ENE) 682 3.6 -8.0°
Drops below altitude 10° 01:46:49 10° 159° (SSE) 1,944 5.4 -7.6°
Sets 01:49:02 0° 163° (SSE) 2,843 6.2 -7.3°
